Location: Drhovce
(49.7281°N, 14.2331°E)
Time: 22:33:32
(UTC+00:00)

Daily predictions for brighter satellites

Satellite Brightness Start Highest point End
(mag) Time Altitude Azimuth Time Altitude Azimuth Time Altitude Azimuth
Cosmos 2279 Rocket 4.0 16:56:13 10° N 17:02:30 76° ENE 17:08:45 10° SSE
Cosmos 2369 3.7 16:58:50 10° SSW 17:04:31 70° ESE 17:10:13 10° NNE
SL-08 RB Rocket 4.3 17:00:26 10° S 17:05:00 66° W 17:09:39 10° NNW
Cosmos 1733 Rocket 3.2 17:01:09 10° S 17:05:31 57° E 17:09:54 10° NNE
Cosmos 1844 Rocket 3.9 17:01:13 10° NNW 17:05:54 25° NE 17:10:33 10° E
BREEZE-M DEB (TANK) 4.3 17:01:47 10° SSW 17:06:02 48° SE 17:21:14 10° ENE
CZ-4B R/B 4.4 17:03:14 10° S 17:07:30 46° W 17:11:39 10° NNW
COBE Rocket 4.1 17:04:10 10° SE 17:08:46 45° ENE 17:13:16 10° N
Cosmos 2221 Rocket 3.6 17:04:41 10° N 17:09:13 69° ENE 17:13:46 10° SSE
Cosmos 2278 4.1 17:05:06 10° S 17:10:24 42° ESE 17:15:44 10° NE
SL-16 R/B 3.3 17:07:19 10° SSE 17:11:34 22° ESE 17:15:51 10° NE
Cosmos 1570 Rocket 4.5 17:08:09 10° NNW 17:13:09 41° ENE 17:18:05 10° SE
PAYLOAD B 4.2 17:08:33 10° SSE 17:14:02 75° ENE 17:19:34 10° NNW
CZ-4B DEB 4.3 17:10:00 10° SSE 17:15:28 84° WSW 17:20:59 10° NNW
SKYMED 3 4.5 17:11:23 10° NNE 17:15:29 59° E 17:19:32 10° S
BREEZE-M DEB (TANK) 3.0 17:17:20 10° W 17:19:21 36° SSW 17:22:12 10° SE
Cosmos 2278 Rocket 4.4 17:18:46 10° N 17:19:33 10° NNE 17:20:20 10° NNE
COSMO-SKYMED 1 2.6 17:20:39 10° NNE 17:25:01 88° E 17:29:22 10° SSW
Cosmos 2263 Rocket 2.4 17:19:54 10° NNW 17:25:37 79° WSW 17:31:18 10° SSE
Meteor 1-24 Rocket 4.3 17:22:23 10° N 17:27:11 33° ENE 17:32:01 10° SE
SJ-6B 4.3 17:26:36 12° E 17:28:40 18° ENE 17:31:18 10° NNE
Spot 1 4.0 17:26:21 10° NNE 17:30:31 59° ESE 17:34:33 10° S
Cosmos 1437 Rocket 3.5 17:27:30 10° SSE 17:30:43 28° E 17:33:57 10° NNE
ASTEX 1 3.4 17:26:01 10° N 17:31:02 88° E 17:36:02 10° S
HJ-1C 3.3 17:29:32 10° SSE 17:32:33 50° ENE 17:35:36 10° N
Cosmos 1741 Rocket 4.0 17:28:24 10° SSW 17:33:41 90° WNW 17:38:58 10° NNE
Feng Yun 1-1 Rocket 4.4 17:30:14 10° SE 17:35:30 52° ENE 17:40:44 10° N
USA 267 3.6 17:29:08 10° SE 17:35:38 67° SW 17:42:12 10° WNW
IRIDIUM 104 4.4 17:30:50 10° SSE 17:35:56 59° E 17:41:05 10° N
Cosmos 1814 Rocket 4.0 17:31:47 10° NNW 17:37:06 84° ENE 17:42:17 10° SSE
SL-4 R/B 2.7 17:33:47 10° WNW 17:38:06 56° SSW 17:42:26 11° SE
Cosmos 1844 4.4 17:35:26 10° NNW 17:40:29 34° NE 17:44:18 16° ESE
Cosmos 2084 Rocket 3.5 17:36:54 10° NW 17:40:37 49° NE 17:43:22 17° ESE
Cosmos 2208 Rocket 4.2 17:36:30 10° NNW 17:41:48 55° ENE 17:47:07 10° SE
Cosmos 1805 3.9 17:38:23 10° SSW 17:42:13 60° WNW 17:46:05 10° N
Cosmos 2227 4.2 17:37:17 10° NNW 17:42:57 88° ENE 17:48:35 10° SSE
Cosmos 1242 Rocket 4.0 17:40:11 10° SW 17:43:33 41° WNW 17:46:55 10° N
IRIDIUM 114 4.3 17:39:53 10° S 17:45:03 70° E 17:50:16 10° N
Okean-O 3.7 17:42:55 16° ESE 17:45:27 27° ENE 17:49:10 10° N
Cosmos 489 Rocket 4.5 17:40:42 10° S 17:46:58 68° ESE 17:53:16 10° NNE
ISS -1.3 17:45:18 10° W 17:47:44 19° SW 17:50:10 10° S
CZ-4 R/B 1.4 17:44:00 10° SSE 17:48:08 65° ENE 17:52:18 10° N
Cosmos 1697 Rocket 4.2 17:43:57 10° WSW 17:49:08 37° NW 17:54:23 10° NNE
IGS 5A 4.3 17:48:12 18° ESE 17:50:22 29° ENE 17:53:58 10° N
Meteor 1-12 Rocket 4.3 17:45:23 10° S 17:51:19 67° E 17:57:19 10° NNE
BREEZE M DEB (TANK) 3.7 17:46:12 10° SSW 17:51:36 24° SSE 17:53:02 19° SE
Cosmos 1908 Rocket 3.5 17:49:32 10° S 17:53:49 64° E 17:58:08 10° NNE
OBJECT-B 1.3 17:54:14 27° ENE 17:54:14 27° ENE 17:56:11 10° N
IRIDIUM 103 4.3 17:48:59 10° S 17:54:12 83° E 17:59:27 10° N
Meteor 2-21 4.4 17:48:24 10° S 17:54:27 90° E 18:00:33 10° N
Cosmos 2360 Rocket 3.2 17:51:48 10° SSE 17:56:10 24° ESE 18:00:33 10° NE
USA 81 4.4 17:52:41 10° N 17:57:42 42° ENE 18:02:40 10° SSE
Cosmos 1766 3.4 17:58:07 10° SSW 18:02:02 75° W 18:06:00 10° N
Cosmos 1782 Rocket 3.8 17:57:57 10° SSE 18:02:03 43° E 18:06:12 10° NNE
Cosmos 1025 Rocket 3.3 18:01:22 10° N 18:05:32 45° ENE 18:07:57 22° SE
YAOGAN 1 3.1 18:02:11 10° S 18:06:27 61° WSW 18:10:45 10° NNW
Cosmos 2026 Rocket 4.0 18:02:18 10° SSE 18:08:05 50° E 18:13:57 10° NNE
ATLAS 2AS CENTAUR R/B 4.3 18:02:18 10° NW 18:08:28 27° N 18:14:11 11° ENE
Cosmos 968 Rocket 3.4 18:03:41 10° SSW 18:08:53 69° ESE 18:14:07 10° NNE
Okean O Rocket 1.9 18:05:56 10° S 18:10:16 67° WSW 18:14:40 10° NNW
Lacrosse 4 Rocket 1.9 18:10:01 10° S 18:13:44 34° ESE 18:13:56 34° ESE
Meteor 2-5 Rocket 3.6 18:09:40 10° NNW 18:15:14 86° ENE 18:20:47 10° SSE
Nadezhda 4 Rocket 4.2 18:09:41 10° SSW 18:16:01 78° W 18:22:21 10° N
CSL-04 Rocket 3.7 18:13:27 18° SE 18:17:26 59° ENE 18:22:47 10° N
Meteor 1-15 Rocket 4.1 18:12:11 10° S 18:17:45 89° E 18:23:21 10° NNE
Cosmos 1553 Rocket 4.3 18:12:13 10° N 18:18:19 45° ENE 18:21:53 24° SE
NOSS 3-4 (A) 4.5 18:14:51 10° NW 18:21:01 39° NNE 18:24:38 24° E
NOSS 3-4 (C) 4.5 18:14:57 10° NW 18:21:06 39° NNE 18:24:44 24° E
USA 186 1.7 18:22:41 52° SE 18:23:18 68° ENE 18:26:41 10° N
Cosmos 1726 4.1 18:21:05 10° SW 18:24:21 31° WNW 18:27:38 10° N
Cosmos 2322 Rocket 2.2 18:19:16 10° S 18:24:48 56° ESE 18:30:23 10° NE
Cosmos 2237 4.2 18:19:50 10° S 18:25:24 58° ESE 18:31:00 10° NE
Landsat 7 4.0 18:25:23 36° ESE 18:26:47 48° ENE 18:31:20 10° N
SPOT 1/Viking Rocket 4.3 18:27:16 30° ENE 18:27:50 31° ENE 18:32:20 10° N
Cosmos 1470 2.6 18:24:59 10° S 18:28:50 89° W 18:32:42 10° N
CZ-4B R/B 4.5 18:23:51 10° SSW 18:28:55 41° W 18:34:08 10° NNW
deb Chang Zheng 4 4.1 18:29:32 36° ENE 18:29:32 36° ENE 18:33:10 10° N
Cosmos 1975 Rocket 2.9 18:26:11 10° N 18:30:38 83° E 18:33:09 25° SSE
Cosmos 1980 Rocket 3.8 18:26:09 10° WSW 18:31:16 35° NW 18:36:25 10° NNE
NOSS 3-3 (A) 4.3 18:27:32 10° S 18:32:27 35° ESE 18:32:27 35° ESE
NOSS 3-3 (C) 4.3 18:27:39 10° S 18:32:21 34° ESE 18:32:21 34° ESE
Ariane Rocket 4.2 18:36:14 25° NE 18:36:14 25° NE 18:40:03 10° N
CRYOSAT 2 4.2 18:34:19 14° S 18:38:28 84° E 18:43:25 10° N
Cosmos 1758 4.5 18:40:19 29° NE 18:40:19 29° NE 18:42:31 10° NNE
Cosmos 2292 Rocket 4.1 18:34:07 10° SSW 18:39:04 59° W 18:42:51 10° N
USA 215 3.7 18:36:54 16° NE 18:42:16 60° NNW 18:48:39 10° W
Aureole 1 Rocket 4.4 18:35:54 10° S 18:42:39 41° ESE 18:48:08 10° NE
IRS-1C Rocket 4.0 18:43:42 30° SSE 18:46:22 86° ENE 18:51:41 10° NNW
Cosmos 1844 Rocket 2.7 18:44:44 10° NNW 18:50:26 78° WSW 18:52:59 34° SSE
Landsat 5 3.6 18:50:29 10° NNE 18:55:00 80° WNW 18:59:26 10° SSW
SL-16 R/B 2.4 18:49:28 10° SW 18:55:08 70° WNW 19:00:50 10° NNE
Cosmos 1943 Rocket 4.2 18:54:00 10° N 18:56:30 13° NNE 18:57:29 12° NE
Cosmos 1092 Rocket 4.3 18:51:17 10° SSW 18:57:33 67° WNW 19:03:48 10° N
Resurs 01 Rocket 2.2 19:01:19 45° NNE 19:01:19 45° NNE 19:04:45 10° N
Terra 4.1 19:03:49 13° NNE 19:03:49 13° NNE 19:04:47 10° NNE
SJ-6B 3.6 19:02:07 39° SW 19:02:55 45° W 19:06:36 10° NNW
Cosmos 2278 Rocket 3.3 19:00:52 10° NNW 19:05:41 28° NE 19:05:41 28° NE
H-2A R/B 3.3 19:07:12 40° N 19:07:12 40° N 19:09:46 10° N
Resurs 1-3 4.0 19:11:26 55° SW 19:11:59 61° W 19:16:21 10° NNW
IRS-1A Rocket 4.2 19:15:25 66° E 19:15:38 67° ENE 19:21:25 10° N
MetOp-A 4.3 19:17:19 43° NNW 19:17:19 43° NNW 19:20:06 10° NNW
SL-4 R/B 4.5 19:14:08 10° W 19:16:59 16° SW 19:17:51 16° SSW
Cosmos 921 Rocket 4.1 19:12:35 10° NNW 19:15:35 37° NNE 19:15:35 37° NNE
Okean-O 3.8 19:20:30 32° SW 19:21:45 40° W 19:25:58 10° NNW
Cosmos 783 Rocket 4.5 19:17:50 10° NNW 19:22:48 77° N 19:22:48 77° N
CZ-4 R/B 4.4 19:21:05 10° SW 19:23:29 15° W 19:25:53 10° NW
Cosmos 1486 Rocket 4.2 19:19:04 10° SSW 19:24:22 73° WNW 19:29:45 10° NNE
Cosmos 1844 4.3 19:19:27 10° NW 19:24:50 51° WSW 19:26:12 41° SSW
Cosmos 2266 Rocket 4.2 19:26:59 55° NE 19:26:59 55° NE 19:32:18 10° NNE
Cosmos 1655 Rocket 4.4 19:28:46 47° NE 19:28:46 47° NE 19:33:29 10° NNE
DNEPR-1 R/B 4.2 19:24:07 10° SW 19:28:56 71° NW 19:30:36 45° NNE
S3M 3.8 19:23:24 10° N 19:29:41 86° E 19:30:10 77° SSE
Cosmos 773 Rocket 4.1 19:25:59 10° NNW 19:31:00 77° WNW 19:31:00 77° WNW
Cosmos 2333 Rocket 4.4 19:36:34 13° NNE 19:36:34 13° NNE 19:37:05 10° NNE
Meteor 1-21 Rocket 4.1 19:26:17 10° NNW 19:31:34 81° N 19:31:34 81° N
Cosmos 2360 Rocket 2.4 19:34:04 10° SW 19:39:41 66° WNW 19:45:19 10° NNE
Lacrosse 4 Rocket 3.6 19:48:36 10° WSW 19:50:17 21° W 19:50:17 21° W
ATLAS 2AS CENTAUR R/B 3.5 19:54:34 10° NW 20:01:22 40° NNE 20:01:35 40° NNE
Cosmos 2322 Rocket 3.8 20:04:03 10° WSW 20:09:10 33° NW 20:14:18 10° NNE
NOSS 3-4 (A) 3.8 20:05:39 10° NW 20:12:04 76° W 20:12:04 76° W
NOSS 3-4 (C) 3.8 20:05:46 10° NW 20:12:10 76° W 20:12:10 76° W
Ariane Rocket 4.3 20:16:26 36° NW 20:16:26 36° NW 20:19:38 10° NNW
USA 215 3.9 20:24:15 47° NNE 20:24:45 47° N 20:30:57 10° WNW
USA 281 3.7 20:27:40 54° N 20:27:40 54° N 20:32:42 10° NNW
Resurs 01 Rocket 4.3 20:38:53 16° WNW 20:38:53 16° WNW 20:40:28 10° NW
Terra 4.3 20:42:43 18° NNW 20:42:43 18° NNW 20:43:57 10° NNW
Cosmos 1943 Rocket 4.0 20:36:34 10° NNW 20:38:59 24° N 20:38:59 24° N
Cosmos 2278 Rocket 3.8 20:44:40 10° NNW 20:47:32 31° NW 20:47:32 31° NW
Cosmos 2369 Rocket 4.3 20:56:31 10° NNW 20:58:48 20° N 20:58:48 20° N
Cosmos 2333 Rocket 4.4 21:18:31 21° N 21:18:31 21° N 21:21:03 10° NNE
ATLAS 2AS CENTAUR R/B 4.3 21:45:47 10° NW 21:49:00 29° NW 21:49:00 29° NW
